DELTA 1 DEB, 10206

Orbit data source: Space-Track

DELTA 1 DEB, 10206 is space debris in LEO originally from a launch on Thu, 14 Jul 1977 UTC launched from the Air Force Eastern Test Range (AFETR). Debris objects in space refer to the collection of defunct objects orbiting the Earth. Examples of debris include non-operational satellites, rocket bodies, and fragments generated from explosions, collisions, or faulty payload assembly.

Loading next visibility...
Identifier
10206, 1977-065AK
Orbit
LEO
Last TLE update
13 hours ago
Origin
Manufacturer
Unknown
Mission
Spacecraft
Bus & Motor
Unknown
Mass
Unknown
Launch date (UTC)
1977-07-14 (48 years ago)
Launch vehicle
Unknown
Launch site
Air Force Eastern Test Range (AFETR)
Object type
Payload
Rocket body
Debris
Shape & HBR
Unknown
Radar Cross Section
Small (<0.1 m²)

Expand to show TLE details & history

TLE from 13 hours ago
0 DELTA 1 DEB
1 10206U 77065AK  25181.81543116  .00001479  00000-0  11020-2 0  9997
2 10206  29.2074 221.6606 0529831 224.2289 131.4731 13.40463353267440
Epoch: 2025-06-30T19:34Z
TLE epoch observation values (Epoch: 2025-06-30T19:34:13.252Z)
Latitude
0.00001°
Longitude
8.98558°
Altitude
1,379.793 km
Speed
7.039 km/s
True Right ascension
14h 46m 38s
True Declination
0° 00' 00"
Sunlit
Object was in daylight at epoch
Visualization orbit readout
Latitude
29.30362°
Longitude
98.81672°
Altitude
1,383.377 km
Speed
7.039 km/s
Apparent Right ascension
22h 05m 52s
Apparent Declination
-8° 04' 29"
Sunlit
Object is in daylight
Visualization observer readout
Local Sidereal Time
20:13:07
Azimuth
144.993° SSE
Elevation
35.394°
Doppler factor
1
Orbital elements
Apogee altitude
1,508.174 km
Perigee altitude
714.541 km
Semi-major axis
7,489.495 km
Eccentricity
0.05298
Inclination
29.2074°
RAAN
221.6606°
Arg. of periapsis
224.2289°
True anomaly
Unknown
Mean anomaly
131.4731°
Eccentric anomaly
Unknown
Mean motion
3.34861 °/min
Orbital period
107.51 mins
BSTAR
0.001102
Loading maneuver chart data...
Loading SW <> Apogee altitude chart data...
Loading historical data...
Loading historical data...
Loading historical data...
Loading historical data...
Loading historical data...
Loading historical data...
Loading historical data...

DELTA 1 DEB Visibility forecast

Observer location: undefined°, undefined°

Span
Click to sort rows by Start time (UTC) header in descending order
Start Az.
Max El. time (UTC)
Max El. Az.
Max El.
End time (UTC)
End Az.
5 mins2025-07-01 08:34:59.071Z145.197° SSE2025-07-01 08:34:59.071Z145.197° SSE29.934°2025-07-01 08:39:59.071Z113.134° SE
12 mins2025-07-01 10:20:59.071Z247.8° W2025-07-01 10:26:59.071Z193.45° SSW29.397°2025-07-01 10:32:59.071Z136.079° SSE
7 mins2025-07-01 12:16:59.071Z238.736° WSW2025-07-01 12:20:59.071Z205.431° SW16.056°2025-07-01 12:23:59.071Z178.794° S
13 mins2025-07-02 05:44:59.071Z204.589° SW2025-07-02 05:50:59.071Z156.048° SSE25.432°2025-07-02 05:57:59.071Z106.137° ESE
15 mins2025-07-02 07:37:59.071Z235.107° WSW2025-07-02 07:44:59.071Z176.153° S33.227°2025-07-02 07:52:59.071Z109.361° ESE
|